Total_Precipitation_Accumulation
0.03 0.05 0.09 0.13 0.11 0.08 0.07 0.07 0.08 0.09 0.10 0.10 0.10 0.11 0.13 0.16 0.19 0.24 0.28 0.32 0.36 0.36 0.37 0.39 0.41 0.41 0.41 0.39 0.38 0.38 0.41 0.55 0.59 0.21 0.11 0.18 0.29 0.34 0.34 0.31 0.29 0.28 0.26
0.04 0.05 0.07 0.12 0.15 0.16 0.17 0.15 0.15 0.15 0.15 0.15 0.14 0.14 0.14 0.15 0.18 0.21 0.25 0.29 0.35 0.39 0.41 0.45 0.47 0.47 0.49 0.48 0.49 0.48 0.46 0.50 0.61 0.42 0.18 0.17 0.26 0.34 0.38 0.37 0.29 0.26 0.24
0.05 0.06 0.08 0.12 0.17 0.22 0.25 0.26 0.24 0.22 0.21 0.20 0.20 0.20 0.21 0.24 0.28 0.29 0.28 0.31 0.34 0.37 0.39 0.45 0.49 0.55 0.59 0.57 0.57 0.56 0.51 0.46 0.49 0.50 0.31 0.22 0.25 0.31 0.36 0.39 0.36 0.33 0.28
0.10 0.13 0.16 0.20 0.24 0.29 0.30 0.30 0.30 0.28 0.27 0.25 0.25 0.27 0.31 0.38 0.52 0.56 0.46 0.42 0.39 0.38 0.38 0.42 0.49 0.58 0.65 0.71 0.76 0.67 0.60 0.62 0.60 0.58 0.46 0.34 0.31 0.32 0.43 0.47 0.46 0.43 0.41
0.21 0.24 0.25 0.24 0.24 0.25 0.26 0.27 0.29 0.31 0.31 0.28 0.27 0.28 0.33 0.47 0.79 0.83 0.67 0.54 0.47 0.45 0.43 0.45 0.49 0.62 0.80 0.96 1.07 1.01 0.95 0.96 0.89 0.85 0.72 0.55 0.45 0.47 0.55 0.54 0.58 0.51 0.50
0.28 0.28 0.27 0.25 0.24 0.24 0.26 0.27 0.28 0.29 0.26 0.22 0.20 0.23 0.32 0.49 0.88 0.94 0.77 0.55 0.49 0.50 0.50 0.45 0.43 0.50 0.59 0.74 0.95 1.01 1.07 1.14 1.16 1.12 1.02 0.87 0.63 0.55 0.60 0.73 0.83 0.83 0.71
0.29 0.29 0.28 0.26 0.26 0.25 0.24 0.23 0.23 0.22 0.18 0.15 0.12 0.14 0.20 0.37 0.75 0.84 0.71 0.48 0.39 0.41 0.41 0.37 0.35 0.35 0.39 0.39 0.49 0.57 0.65 0.80 1.00 1.15 1.24 1.01 0.79 0.69 0.82 0.99 1.03 1.01 0.82
0.27 0.24 0.20 0.18 0.17 0.17 0.18 0.18 0.16 0.15 0.14 0.12 0.09 0.08 0.09 0.18 0.52 0.76 0.62 0.35 0.30 0.32 0.32 0.34 0.36 0.34 0.34 0.40 0.47 0.49 0.46 0.49 0.68 0.91 1.06 0.96 0.88 0.88 1.03 1.26 1.40 1.45 1.16
0.17 0.14 0.11 0.09 0.09 0.10 0.12 0.12 0.11 0.11 0.10 0.09 0.08 0.08 0.07 0.10 0.33 0.68 0.66 0.31 0.28 0.27 0.29 0.39 0.44 0.41 0.41 0.53 0.66 0.64 0.48 0.39 0.45 0.73 0.99 1.04 1.07 1.25 1.44 1.76 2.02 2.07 1.80
0.09 0.07 0.05 0.04 0.05 0.06 0.06 0.07 0.07 0.08 0.08 0.08 0.08 0.07 0.07 0.07 0.21 0.57 0.79 0.41 0.33 0.28 0.29 0.40 0.60 0.59 0.57 0.61 0.68 0.69 0.64 0.43 0.38 0.44 0.53 0.63 0.70 0.77 1.06 1.43 1.65 1.83 1.81
0.04 0.03 0.03 0.03 0.04 0.04 0.05 0.06 0.06 0.08 0.09 0.09 0.08 0.07 0.07 0.07 0.11 0.38 0.79 0.68 0.49 0.41 0.39 0.46 0.58 0.59 0.59 0.60 0.66 0.65 0.65 0.61 0.59 0.57 0.52 0.47 0.50 0.61 0.75 1.02 1.25 1.46 1.64
0.03 0.03 0.03 0.04 0.04 0.04 0.06 0.07 0.08 0.08 0.09 0.10 0.10 0.10 0.08 0.07 0.11 0.26 0.56 0.72 0.64 0.48 0.44 0.39 0.46 0.51 0.56 0.59 0.57 0.58 0.62 0.66 0.63 0.55 0.46 0.39 0.39 0.46 0.57 0.74 0.98 1.13 1.24
0.03 0.04 0.04 0.05 0.05 0.06 0.07 0.09 0.08 0.08 0.11 0.14 0.15 0.14 0.11 0.10 0.13 0.26 0.37 0.43 0.50 0.44 0.47 0.61 0.55 0.49 0.47 0.40 0.36 0.42 0.45 0.46 0.51 0.49 0.39 0.30 0.28 0.33 0.42 0.56 0.72 0.90 1.02
0.03 0.04 0.05 0.06 0.07 0.07 0.08 0.08 0.09 0.11 0.23 0.31 0.27 0.24 0.18 0.17 0.24 0.41 0.44 0.36 0.39 0.42 0.40 0.47 0.48 0.39 0.31 0.25 0.24 0.25 0.27 0.33 0.42 0.45 0.36 0.27 0.24 0.28 0.36 0.47 0.64 0.79 0.98
0.04 0.05 0.06 0.07 0.08 0.09 0.08 0.08 0.11 0.14 0.30 0.50 0.46 0.44 0.42 0.40 0.50 0.74 0.72 0.62 0.62 0.62 0.61 0.59 0.48 0.37 0.32 0.26 0.22 0.19 0.20 0.26 0.34 0.35 0.34 0.32 0.29 0.30 0.32 0.38 0.57 0.74 0.92
0.07 0.07 0.08 0.09 0.10 0.11 0.12 0.12 0.12 0.14 0.21 0.25 0.29 0.39 0.39 0.50 0.63 0.62 0.58 0.57 0.59 0.61 0.65 0.61 0.43 0.33 0.31 0.29 0.27 0.24 0.22 0.23 0.25 0.30 0.33 0.34 0.35 0.35 0.35 0.37 0.51 0.69 0.78
0.09 0.10 0.13 0.13 0.14 0.15 0.17 0.19 0.17 0.14 0.14 0.14 0.17 0.24 0.34 0.46 0.51 0.50 0.53 0.48 0.46 0.46 0.50 0.41 0.31 0.28 0.27 0.27 0.27 0.27 0.24 0.19 0.22 0.29 0.32 0.33 0.36 0.39 0.40 0.42 0.49 0.61 0.70
0.11 0.13 0.15 0.16 0.18 0.19 0.21 0.22 0.22 0.23 0.20 0.16 0.15 0.19 0.26 0.34 0.39 0.42 0.45 0.45 0.38 0.31 0.31 0.30 0.27 0.25 0.26 0.26 0.25 0.25 0.23 0.22 0.24 0.27 0.29 0.29 0.34 0.43 0.45 0.43 0.46 0.60 0.69
0.11 0.13 0.16 0.19 0.21 0.22 0.24 0.24 0.24 0.24 0.23 0.20 0.19 0.21 0.24 0.26 0.27 0.28 0.30 0.32 0.31 0.26 0.24 0.25 0.25 0.26 0.28 0.27 0.25 0.24 0.24 0.24 0.23 0.25 0.26 0.26 0.31 0.43 0.45 0.39 0.44 0.55 0.75
0.11 0.15 0.19 0.21 0.23 0.24 0.26 0.27 0.28 0.30 0.29 0.26 0.26 0.26 0.32 0.36 0.32 0.26 0.24 0.26 0.28 0.26 0.25 0.27 0.24 0.25 0.27 0.27 0.28 0.27 0.26 0.23 0.22 0.24 0.26 0.27 0.32 0.41 0.45 0.42 0.48 0.58 0.68
0.14 0.16 0.19 0.21 0.23 0.25 0.29 0.33 0.35 0.37 0.38 0.33 0.27 0.26 0.48 0.57 0.42 0.28 0.26 0.26 0.29 0.32 0.31 0.30 0.26 0.25 0.26 0.28 0.30 0.28 0.27 0.23 0.22 0.26 0.29 0.30 0.34 0.41 0.42 0.46 0.51 0.57 0.65
0.19 0.21 0.22 0.24 0.25 0.27 0.33 0.36 0.38 0.39 0.38 0.34 0.27 0.25 0.31 0.31 0.28 0.26 0.25 0.25 0.27 0.30 0.33 0.38 0.34 0.28 0.29 0.34 0.36 0.36 0.31 0.25 0.23 0.28 0.32 0.33 0.36 0.40 0.43 0.49 0.53 0.59 0.67
0.25 0.27 0.26 0.25 0.25 0.30 0.32 0.31 0.35 0.37 0.36 0.33 0.30 0.28 0.26 0.26 0.27 0.28 0.28 0.27 0.29 0.31 0.33 0.37 0.39 0.32 0.27 0.31 0.36 0.42 0.44 0.35 0.31 0.38 0.47 0.45 0.42 0.43 0.47 0.52 0.54 0.61 0.67
0.32 0.32 0.32 0.29 0.29 0.31 0.33 0.33 0.35 0.34 0.35 0.35 0.32 0.30 0.28 0.27 0.26 0.25 0.26 0.27 0.30 0.32 0.33 0.38 0.39 0.35 0.31 0.32 0.35 0.37 0.40 0.45 0.58 0.65 0.62 0.62 0.56 0.49 0.51 0.56 0.56 0.58 0.65
0.32 0.33 0.34 0.34 0.35 0.36 0.38 0.36 0.35 0.35 0.36 0.37 0.35 0.32 0.29 0.28 0.27 0.26 0.26 0.28 0.32 0.32 0.31 0.33 0.36 0.35 0.32 0.30 0.31 0.32 0.37 0.51 0.69 0.94 1.10 1.05 0.84 0.64 0.61 0.63 0.61 0.62 0.67
0.30 0.30 0.31 0.33 0.36 0.39 0.43 0.43 0.41 0.40 0.42 0.40 0.37 0.36 0.34 0.34 0.31 0.29 0.30 0.35 0.40 0.38 0.35 0.32 0.31 0.31 0.31 0.31 0.29 0.31 0.43 0.63 0.81 1.03 1.39 1.53 1.21 0.86 0.73 0.75 0.71 0.71 0.75